Tulsa, OK

1:29 AM CDT on September 25, 2017 (GMT -0500)
Tulsa International

Weather History for KTUL - March, 2014

Change the Weather History Date:

Friday, March 21, 2014

  Actual Average Record
Temperature  
Mean Temperature 63 °F 53 °F  
Max Temperature 77 °F 64 °F 98 °F (1916)
Min Temperature 48 °F 42 °F 18 °F (1974)
Degree Days  
Heating Degree Days 2 13  
Month to date heating degree days 413 326  
Since 1 July heating degree days 3714 3237  
Cooling Degree Days 0 0  
Month to date cooling degree days 0 0  
Year to date cooling degree days 0 1  
Growing Degree Days 12 (Base 50)    
Moisture  
Dew Point 35 °F    
Average Humidity 35    
Maximum Humidity 44    
Minimum Humidity 25    
Precipitation  
Precipitation 0.00 in 0.11 in 3.25 in (1921)
Month to date precipitation 2.11 2.17  
Year to date precipitation 2.56 5.68  
Sea Level Pressure  
Sea Level Pressure 29.85 in    
Wind  
Wind Speed 13 mph (South)    
Max Wind Speed 28 mph    
Max Gust Speed 35 mph    
Visibility 10 miles    
Events      
T = Trace of Precipitation, MM = Missing Value Source: NWS Daily Summary

Daily Weather History Graph

Daily Weather History Graph

Search for Another Location

Airport or City:

Trip Planner

Search our weather history database for the weather conditions in past years. The results will help you decide how hot, cold, wet, or windy it might be!

Date:

Astronomy

Mar. 21, 2014 Rise Set
Actual Time 7:25 AM CDT 7:36 PM CDT
Civil Twilight 7:00 AM CDT 8:01 PM CDT
Nautical Twilight 6:30 AM CDT 8:31 PM CDT
Astronomical Twilight 5:59 AM CDT 9:02 PM CDT
Moon No Moon Rise 10:26 AM CDT (3/21)
Length of Visible Light 13h 01m
Length of Day
12h 10m
Waning Gibbous, 75% of the Moon is Illuminated
Mar 21
Waning Gibbous
Mar 23
Last Quarter
Mar 30
New
Apr 7
First Quarter
Apr 15
Full

Hourly Weather History & Observations

Time (CDT) Temp. Dew Point Humidity Pressure Visibility Wind Dir Wind Speed Gust Speed Precip Events Conditions
12:53 AM 55.9 °F 27.0 °F 33% 29.92 in 10.0 mi South 16.1 mph - N/A   Scattered Clouds
1:53 AM 55.0 °F 28.0 °F 35% 29.91 in 10.0 mi SSE 13.8 mph - N/A   Scattered Clouds
2:53 AM 54.0 °F 28.9 °F 38% 29.89 in 10.0 mi SSE 10.4 mph - N/A   Scattered Clouds
3:53 AM 52.0 °F 30.0 °F 43% 29.86 in 10.0 mi SSE 9.2 mph - N/A   Mostly Cloudy
4:53 AM 51.1 °F 30.0 °F 44% 29.84 in 10.0 mi SE 10.4 mph - N/A   Mostly Cloudy
5:53 AM 52.0 °F 30.0 °F 43% 29.83 in 10.0 mi SSE 11.5 mph - N/A   Overcast
6:53 AM 52.0 °F 28.9 °F 41% 29.81 in 10.0 mi SSE 11.5 mph - N/A   Overcast
7:53 AM 52.0 °F 30.0 °F 43% 29.81 in 10.0 mi SSE 12.7 mph - N/A   Overcast
8:53 AM 55.9 °F 32.0 °F 40% 29.79 in 10.0 mi South 20.7 mph 26.5 mph N/A   Overcast
9:53 AM 60.1 °F 35.1 °F 39% 29.79 in 10.0 mi South 18.4 mph - N/A   Overcast
10:53 AM 66.0 °F 39.9 °F 38% 29.78 in 10.0 mi South 24.2 mph 35.7 mph N/A   Overcast
11:53 AM 69.1 °F 43.0 °F 39% 29.81 in 10.0 mi SSW 18.4 mph 25.3 mph N/A   Overcast
12:53 PM 70.0 °F 45.0 °F 41% 29.80 in 10.0 mi SSW 13.8 mph 20.7 mph N/A   Overcast
1:53 PM 72.0 °F 45.0 °F 38% 29.79 in 10.0 mi SSW 10.4 mph 19.6 mph N/A   Mostly Cloudy
2:53 PM 75.0 °F 46.0 °F 36% 29.78 in 10.0 mi South 11.5 mph 17.3 mph N/A   Mostly Cloudy
3:53 PM 75.9 °F 42.1 °F 30% 29.78 in 10.0 mi West 8.1 mph - N/A   Mostly Cloudy
4:53 PM 75.9 °F 39.9 °F 27% 29.80 in 10.0 mi NW 6.9 mph - N/A   Mostly Cloudy
5:53 PM 75.0 °F 37.9 °F 26% 29.82 in 10.0 mi North 17.3 mph - N/A   Mostly Cloudy
6:53 PM 68.0 °F 36.0 °F 31% 29.85 in 10.0 mi North 20.7 mph - N/A   Mostly Cloudy
7:53 PM 62.1 °F 35.1 °F 37% 29.89 in 10.0 mi North 11.5 mph - N/A   Mostly Cloudy
8:53 PM 60.1 °F 32.0 °F 35% 29.93 in 10.0 mi North 11.5 mph - N/A   Mostly Cloudy
9:53 PM 57.9 °F 30.9 °F 36% 29.96 in 10.0 mi North 11.5 mph - N/A   Scattered Clouds
10:53 PM 59.0 °F 30.0 °F 33% 29.99 in 10.0 mi NNE 12.7 mph - N/A   Mostly Cloudy
11:53 PM 55.0 °F 32.0 °F 42% 30.02 in 10.0 mi North 6.9 mph - N/A   Scattered Clouds